Location: Unspecified
(0.0000°N, 0.0000°E)
Time: 01:14:15
(UTC+00:00)

COSMOS 2452 - Pass Details

Date: 20 May 2026
Orbit: 1481 x 1507 km, 82.5° (Epoch: 10 June)

Event Time Altitude Azimuth Distance (km) Brightness Sun altitude
Rises 01:10:30 0° 25° (NNE) 4,596 ? -63.1°
Reaches altitude 10° 01:14:16 10° 40° (NE) 3,616 ? -62.4°
Enters shadow 01:14:24 10° 41° (NE) 3,584 ? -62.4°
